RH
18 18 16 17 18 22 19 16 17 16 16 14 14 16 18 18 16 14 13 13 12 11 10 10 12 11 11 12 12 10 8 17 28 50 42 52 62 68 66 68 78 91 100 100 93 64 78 83 98
18 17 18 18 28 35 25 23 22 20 19 18 16 16 18 18 17 15 14 14 13 12 11 10 12 13 12 13 13 12 9 12 42 60 60 48 58 67 70 70 97 100 100 100 100 88 79 77 68
23 24 24 26 43 42 31 27 27 27 27 20 18 17 18 17 16 16 15 14 14 13 12 11 13 15 14 13 14 14 13 22 34 61 58 51 42 53 70 84 94 77 89 100 100 89 74 76 70
36 35 39 42 52 54 38 26 32 37 30 25 21 18 19 18 17 16 17 15 14 14 13 12 13 15 18 16 18 21 23 19 33 37 70 54 55 59 41 61 74 89 100 100 88 66 58 68 75
55 49 41 46 80 74 51 48 38 22 28 28 23 20 22 21 18 18 19 17 15 15 15 14 13 17 18 19 18 23 21 39 36 52 56 45 64 64 62 36 47 62 82 94 93 72 60 84 96
41 37 30 35 71 69 56 36 23 25 26 26 27 26 27 26 21 21 20 19 18 16 16 16 16 14 18 20 26 32 31 40 45 42 29 20 20 15 15 22 24 30 50 68 83 79 94 98 94
32 26 24 28 93 97 68 30 34 28 35 30 33 29 32 36 25 23 23 21 20 20 18 18 18 19 15 18 24 27 26 24 24 23 19 18 15 12 12 11 12 18 26 42 58 64 68 82 87
25 25 24 41 88 89 48 34 29 28 36 34 28 35 44 35 32 24 23 22 19 21 21 21 18 19 19 17 19 28 26 25 22 23 26 26 18 16 15 14 12 12 12 16 26 30 49 53 55
29 28 28 29 25 26 24 25 21 19 23 32 38 47 57 49 37 33 24 28 24 20 22 23 21 20 20 22 20 18 23 32 33 28 24 22 21 21 20 18 17 15 12 12 13 14 56 42 79
41 34 48 44 38 38 31 24 24 25 27 33 90 82 76 60 47 37 34 25 31 27 22 23 23 23 21 22 23 21 17 24 36 36 28 23 22 24 22 21 19 18 18 16 13 16 55 100 100
49 40 38 41 38 35 36 35 31 39 36 35 35 81 85 88 68 50 40 37 32 28 32 27 22 23 25 26 24 26 22 18 19 35 33 26 24 24 24 23 24 22 20 19 20 19 18 44 100
33 41 42 60 49 40 67 38 38 50 39 38 58 81 83 69 50 54 56 53 51 46 37 30 31 30 28 28 28 25 28 24 22 18 32 31 27 26 25 25 24 24 23 22 19 19 19 20 20
38 47 38 62 73 55 47 52 89 51 58 49 56 79 94 93 74 63 68 71 64 59 64 62 44 33 30 30 30 29 24 26 23 22 20 22 31 29 27 27 28 24 23 23 23 20 18 18 16
42 43 58 67 65 72 86 77 53 53 78 80 66 46 52 70 87 98 89 69 64 83 87 69 61 55 48 44 41 37 35 29 24 22 22 20 17 27 31 30 32 30 27 25 25 23 20 18 16
41 35 36 44 91 100 100 94 75 91 58 60 68 81 60 44 54 67 78 70 78 70 57 62 65 62 58 56 62 59 54 40 35 28 20 22 19 17 22 32 32 35 33 31 27 27 26 23 20
56 43 48 85 96 86 93 67 100 100 92 64 59 65 56 91 62 54 59 64 70 78 82 70 81 86 76 64 74 75 78 66 44 35 26 22 21 19 18 19 27 32 34 36 35 29 29 29 26
45 83 100 100 100 82 56 55 69 70 89 92 88 100 93 65 73 77 80 66 64 66 74 82 90 79 82 91 86 74 66 68 75 52 37 32 26 23 20 18 18 19 23 27 35 38 35 28 31
100 97 63 67 90 98 96 90 95 88 76 72 79 97 100 100 100 92 78 81 100 81 68 72 78 78 72 80 87 72 59 67 70 72 58 37 35 33 26 22 19 19 18 18 19 25 36 40 36
72 69 73 84 93 92 100 100 100 100 100 100 84 66 69 76 96 88 92 76 67 64 57 67 67 64 69 68 60 50 54 60 63 76 79 69 46 35 36 33 23 20 19 19 19 19 20 29 37
88 96 100 100 99 93 96 96 86 80 82 98 100 100 94 71 76 83 96 90 90 72 60 56 61 62 58 62 62 50 52 56 61 75 85 96 80 65 51 35 28 24 21 20 19 19 19 20 24
85 93 98 98 100 89 86 76 82 92 89 96 100 100 100 100 86 83 90 97 98 92 76 72 69 60 57 58 63 66 61 58 57 58 74 78 85 91 94 82 64 45 29 24 20 19 18 18 18
71 73 70 75 79 87 90 88 100 100 99 99 100 100 100 100 100 100 94 95 100 99 92 84 89 98 90 72 64 68 67 78 73 64 59 72 68 60 62 74 86 86 81 76 71 64 54 36 23
57 64 64 58 59 51 52 54 71 100 100 100 100 100 100 100 100 100 100 98 98 96 100 100 100 100 100 95 90 82 80 72 74 85 84 72 68 64 60 49 56 68 77 84 84 80 74 68 62
35 40 48 43 32 32 38 44 60 83 98 95 87 96 100 100 100 100 100 100 100 100 100 100 100 100 100 100 100 96 89 96 76 74 75 87 84 74 71 67 57 57 64 69 73 74 77 78 79
29 32 29 30 32 30 34 36 41 53 64 75 88 97 100 100 100 100 100 100 100 100 100 100 100 100 100 100 100 100 100 100 100 86 76 76 92 100 100 97 88 84 74 69 67 65 65 65 65
27 26 26 27 29 30 33 29 42 53 69 55 54 80 98 100 100 100 100 100 100 100 100 100 100 100 100 100 100 100 100 100 100 100 100 92 88 98 100 100 100 100 97 96 88 91 94 95 92
26 27 28 28 28 27 26 27 29 33 33 30 29 31 34 40 56 78 99 100 100 100 100 100 100 100 100 100 100 100 100 100 100 100 100 100 100 99 92 99 100 100 100 100 98 95 85 82 84
28 26 24 25 25 25 26 27 27 30 30 28 26 25 25 34 71 90 90 96 99 100 100 100 100 100 100 100 100 100 100 100 100 100 100 100 100 100 100 100 96 100 100 100 92 90 89 78 75
25 26 25 25 23 23 24 24 26 29 29 27 24 23 23 24 25 25 27 30 38 56 72 85 89 86 88 92 93 91 96 98 100 100 100 100 100 100 100 100 100 99 100 100 86 87 96 96 93
21 22 24 22 23 23 22 22 24 26 28 26 25 24 23 24 25 25 25 26 26 26 27 29 35 53 75 90 100 100 100 98 99 98 96 92 87 88 93 93 88 84 89 92 89 81 83 86 88
Wind_Speed
55 55 53 49 49 52 48 49 48 43 45 44 42 40 42 42 42 40 32 33 33 29 26 24 24 24 21 19 17 15 14 18 33 41 57 67 68 68 63 54 57 58 56 52 53 61 58 56 54
54 53 53 51 52 56 54 53 48 41 43 44 44 41 42 43 44 42 32 33 36 31 27 24 25 25 24 21 19 16 15 16 22 34 41 57 68 67 66 67 56 51 57 58 54 54 61 61 58
53 53 52 50 51 56 57 54 47 44 42 40 45 42 45 45 44 42 35 35 39 34 29 27 25 25 25 25 22 20 18 17 18 20 28 38 54 69 69 66 69 62 51 54 59 64 58 56 57
49 49 49 49 53 56 58 54 48 45 44 44 45 46 47 48 45 44 39 38 40 36 33 30 26 25 26 27 26 24 22 21 22 23 23 23 35 43 65 74 72 63 63 59 60 55 61 60 58
48 49 48 47 50 56 57 53 51 49 48 48 47 51 50 49 49 46 43 42 41 39 35 32 28 27 28 29 28 28 26 24 25 27 24 22 22 30 42 59 72 74 73 74 69 48 53 58 62
48 48 44 45 55 57 55 54 54 51 49 46 51 52 52 51 49 48 46 45 42 42 40 36 34 29 29 30 30 30 29 29 30 31 30 29 30 29 33 44 54 68 74 74 70 67 69 66 65
45 44 40 41 47 54 56 53 51 46 44 43 45 52 53 54 54 52 49 48 46 43 43 40 39 34 31 32 33 33 33 33 33 33 32 34 34 32 31 32 40 52 62 71 70 71 75 75 72
41 38 33 40 51 54 52 48 47 44 45 45 43 49 56 57 54 54 53 52 52 48 46 46 45 42 38 34 35 36 38 36 32 31 34 39 37 36 35 34 35 39 48 58 66 67 76 75 76
42 36 36 48 52 52 48 48 49 45 46 43 40 47 56 54 55 55 54 54 54 53 51 48 48 47 44 41 39 40 40 37 35 36 37 38 37 38 38 38 38 38 39 43 45 51 51 58 61
43 40 35 44 48 46 41 43 43 41 41 41 40 47 52 53 52 52 54 55 57 58 57 55 52 50 50 48 45 43 43 42 41 40 39 39 38 39 39 40 40 41 42 43 42 43 44 49 61
47 43 45 48 50 51 49 41 35 35 36 40 39 45 49 50 49 48 49 53 58 60 62 60 58 57 56 54 53 49 47 45 46 44 45 44 42 39 39 40 41 43 44 46 47 47 47 51 59
51 51 52 54 55 51 49 46 39 37 36 37 37 42 49 50 50 50 47 47 49 53 59 63 66 66 65 63 62 57 54 52 49 48 50 49 48 46 43 43 42 44 45 46 47 49 51 55 55
55 54 55 55 57 57 55 49 45 43 42 39 39 41 44 51 55 54 53 50 50 52 53 56 61 65 67 66 64 63 60 59 57 56 55 55 54 52 50 47 46 46 47 47 47 47 48 54 54
62 62 60 59 59 60 58 57 52 51 54 48 45 46 48 50 51 54 59 61 60 59 57 56 57 58 59 60 61 63 65 67 65 62 61 60 58 59 56 54 51 50 50 49 48 49 49 49 51
70 70 69 66 67 67 66 60 57 61 61 56 53 51 50 49 51 52 54 55 58 62 63 62 61 60 61 60 59 58 58 60 67 69 67 66 64 62 62 60 58 55 54 52 52 51 51 52 53
79 78 76 74 75 73 76 66 69 70 68 64 62 60 56 54 52 50 51 54 56 57 59 62 62 62 61 64 65 63 60 60 60 67 70 69 69 67 65 65 64 63 61 59 57 55 55 55 55
85 85 82 81 82 86 84 77 80 80 77 70 67 64 64 60 58 58 57 57 58 60 61 60 61 65 68 68 67 68 67 66 64 63 67 72 72 71 70 68 68 68 67 65 64 62 61 60 59
95 92 92 92 91 92 89 84 84 84 81 80 75 73 71 70 68 67 67 65 64 64 63 65 66 66 63 63 65 68 69 73 72 69 66 67 71 73 74 73 72 71 71 70 68 67 66 65 64
104 101 98 97 97 96 95 92 91 89 89 88 86 85 80 80 77 74 74 73 72 72 69 68 70 71 70 67 65 65 63 63 70 73 70 67 66 70 73 75 75 75 74 72 72 71 71 70 69
108 107 104 105 107 107 104 101 100 96 94 93 92 92 91 86 84 83 81 80 79 78 75 73 71 72 73 72 72 71 67 63 61 65 74 73 70 69 69 71 74 75 76 76 76 76 75 75 75
115 113 113 114 115 113 112 106 105 104 101 99 97 97 96 96 93 92 90 88 86 84 83 81 79 77 75 76 76 76 74 69 66 63 64 69 74 74 73 72 72 73 74 75 77 78 79 78 78
119 118 119 119 121 119 122 114 114 112 110 107 105 104 104 102 101 100 98 95 92 91 87 84 84 84 82 80 79 78 78 78 74 71 70 69 67 71 75 79 79 77 77 77 76 76 75 76 76
117 121 122 120 121 120 119 119 113 114 113 111 110 111 110 110 107 105 103 101 99 95 92 90 89 89 89 87 84 83 82 83 83 82 80 79 77 74 72 73 76 81 83 81 81 81 81 81 80
104 105 109 109 104 100 95 98 95 101 107 109 107 107 108 106 107 106 105 104 103 102 101 98 96 94 94 93 91 90 89 87 89 88 88 86 85 83 80 77 77 76 77 77 80 82 83 83 85
87 89 92 92 90 86 87 87 80 85 88 91 94 97 98 101 103 106 108 107 106 107 107 106 104 101 100 99 95 96 94 93 92 93 93 91 89 88 87 85 83 82 82 81 81 81 80 81 83
83 84 84 81 79 81 82 77 72 76 80 82 85 87 90 95 98 100 104 105 105 105 106 106 105 103 102 100 99 99 99 97 97 95 94 94 95 93 92 91 89 89 89 88 88 87 86 86 85
75 77 78 78 77 77 75 69 69 71 74 76 76 77 80 84 89 90 92 95 97 99 101 102 103 103 102 101 100 100 99 99 100 100 99 97 96 99 100 97 95 95 94 95 95 94 93 93 92
74 76 75 73 73 71 67 66 66 68 72 73 71 72 74 77 81 85 88 92 94 94 96 97 98 99 100 100 99 98 98 99 101 102 103 101 99 100 101 103 103 100 99 101 101 100 99 97 96
72 73 72 71 69 67 64 62 64 65 67 70 70 70 69 72 75 78 80 82 83 85 87 89 91 93 95 95 95 96 97 99 101 102 104 104 103 103 103 104 105 107 106 109 107 106 104 104 102
71 70 68 68 67 67 64 60 62 64 66 68 68 67 68 69 72 74 75 77 78 80 81 83 84 86 88 90 92 93 94 96 98 100 102 104 104 106 108 107 107 108 109 112 111 110 109 109 109
Wind_Direction
283 285 284 285 283 282 279 276 280 280 285 281 278 270 267 265 267 267 263 264 261 259 259 263 263 255 250 251 255 252 248 229 225 227 226 224 225 224 223 223 228 232 231 231 236 236 239 237 238
284 282 282 283 283 279 279 283 287 273 279 276 270 267 265 266 264 264 256 253 260 257 256 257 259 256 249 245 244 244 241 227 220 226 228 227 225 224 225 225 224 225 232 235 229 229 234 236 237
281 280 282 283 278 273 280 280 277 276 271 270 272 265 260 259 260 260 251 245 256 256 254 255 251 255 251 244 241 236 235 230 227 226 228 227 227 226 225 225 230 227 226 236 236 233 231 236 237
276 278 278 280 272 272 274 278 275 274 268 270 269 260 255 256 257 254 248 240 250 253 253 251 247 248 252 247 243 239 231 232 226 226 225 226 226 227 228 227 228 226 229 230 238 232 232 234 238
275 276 277 276 267 270 276 278 277 278 272 265 262 256 256 252 250 250 247 241 241 246 249 250 245 242 246 247 245 239 234 229 229 224 227 223 217 219 227 228 228 229 233 236 234 232 231 234 238
274 274 276 270 266 266 266 271 282 279 274 269 258 255 253 250 247 245 241 241 240 243 245 246 246 239 242 246 245 240 234 229 225 227 233 230 226 228 227 228 229 230 232 237 237 237 240 241 241
271 272 272 268 264 263 267 282 280 278 276 267 259 255 251 246 243 242 240 238 236 237 240 243 245 243 239 241 243 244 242 237 236 237 238 237 234 229 226 227 226 228 231 234 238 241 242 240 244
269 274 278 268 264 268 277 282 280 275 272 268 261 251 248 249 244 242 241 239 236 236 239 243 244 243 242 239 242 242 243 241 239 239 239 237 234 233 228 226 227 226 229 233 237 241 243 247 246
273 276 272 267 269 270 274 274 274 274 272 273 260 251 247 247 246 241 240 241 240 238 236 239 243 246 246 242 240 244 244 241 239 239 239 242 243 240 236 234 231 229 228 228 230 236 239 245 249
273 272 266 269 272 275 276 276 277 273 270 271 252 245 247 248 246 245 243 240 241 241 239 237 240 243 248 248 245 243 244 242 239 239 241 239 240 244 241 237 236 235 231 232 228 228 229 221 241
268 271 266 272 272 273 274 273 273 271 269 266 263 243 241 249 249 246 244 243 241 240 242 242 240 240 243 248 250 247 246 245 243 239 239 240 240 240 243 242 241 238 237 234 232 231 228 225 234
267 266 263 266 267 267 267 269 271 267 263 265 262 251 240 245 250 251 245 243 245 244 244 243 243 244 247 249 249 248 247 248 247 245 242 239 241 240 238 241 241 243 241 240 238 236 235 233 232
269 268 262 260 261 263 264 264 264 265 261 259 254 254 256 250 250 255 253 248 245 245 244 244 244 244 245 245 248 249 248 246 246 247 246 243 240 243 242 241 243 244 245 245 246 244 241 237 239
266 264 261 262 263 264 264 263 261 267 262 256 254 251 248 251 253 252 254 256 254 248 248 249 248 246 245 244 245 247 248 247 246 245 245 246 243 242 244 243 241 243 245 244 245 246 246 242 239
266 264 262 261 259 260 262 263 267 259 259 259 258 255 253 250 250 251 253 256 258 255 254 251 248 250 248 246 244 245 246 247 247 244 242 244 245 244 243 244 244 242 243 245 246 246 246 246 246
264 264 264 263 261 259 260 259 260 258 260 257 256 256 255 256 254 252 254 253 254 256 256 252 251 247 251 252 250 247 246 248 248 245 243 243 244 246 245 244 243 244 242 243 245 246 247 247 247
264 262 261 261 262 261 260 257 258 259 258 256 258 260 260 257 256 254 253 251 252 251 251 253 254 254 255 253 248 248 248 247 247 247 245 243 244 245 246 246 246 245 245 244 244 246 247 248 248
261 260 259 257 257 260 261 261 261 262 264 263 259 258 259 258 258 257 255 252 253 251 250 248 248 251 254 252 251 250 249 248 246 244 245 245 244 245 246 247 247 247 247 247 246 246 246 247 248
260 260 260 261 260 260 259 258 257 258 259 260 260 258 252 252 254 254 255 255 253 253 250 250 248 248 251 252 249 250 249 250 248 246 246 246 247 246 245 247 247 248 248 248 248 248 247 247 247
260 260 259 258 259 258 257 256 255 256 256 257 258 258 258 255 255 256 256 256 255 255 256 255 251 250 248 250 251 250 250 251 249 247 246 246 245 246 247 247 247 248 248 249 249 249 249 248 248
256 257 257 257 257 257 258 257 259 259 258 257 257 258 257 258 256 256 256 256 254 254 255 255 255 253 252 249 249 249 250 249 248 246 246 246 247 246 247 247 247 247 247 249 250 250 250 250 250
256 257 257 257 257 258 258 257 257 257 257 258 257 257 258 257 255 255 255 255 254 255 255 256 255 254 253 253 251 248 248 248 248 247 245 245 246 246 248 248 248 248 248 248 248 249 249 250 250
259 259 260 260 260 260 260 259 256 257 257 257 257 257 256 255 255 254 255 254 254 254 255 255 254 253 253 253 251 251 249 248 249 248 247 248 249 250 250 250 250 250 251 251 251 251 251 252 252
258 258 259 259 259 259 261 260 256 255 256 255 254 252 252 251 252 253 253 253 253 254 253 253 253 254 252 252 251 251 250 249 248 248 248 248 249 250 250 251 250 249 250 250 251 251 252 253 253
258 257 258 259 259 259 257 256 252 250 250 250 249 249 249 249 250 252 251 251 251 252 252 252 252 252 252 251 250 250 250 249 249 249 249 248 248 250 249 250 251 251 251 251 252 253 253 253 253
254 254 257 257 256 254 253 255 252 249 248 250 249 247 247 247 248 248 250 250 250 251 251 251 252 252 252 251 250 250 250 249 248 249 250 250 249 247 249 250 250 251 252 253 253 254 254 254 255
254 253 253 253 252 252 254 253 250 247 248 248 247 246 246 246 246 245 245 247 248 248 249 250 251 250 249 249 249 249 250 249 247 247 247 248 249 248 247 246 248 249 251 252 252 252 254 255 256
250 249 250 251 251 251 250 248 247 245 246 247 246 245 245 245 244 244 244 244 245 247 247 247 248 249 249 248 248 248 249 248 246 246 246 247 248 248 248 249 248 249 250 251 251 252 254 256 257
248 248 248 249 249 247 245 243 244 244 245 247 246 244 242 243 244 243 243 244 244 245 245 247 248 249 249 249 249 249 247 245 244 245 246 246 248 247 246 247 249 251 251 251 253 254 256 257 258
248 249 247 247 247 246 243 241 242 243 244 244 246 244 242 241 243 244 243 244 244 245 245 246 247 247 247 248 249 249 249 248 247 247 248 249 250 250 248 248 250 250 251 254 256 257 257 257 259